Location: Rostock
(54.0884°N, 12.1234°E)
Time: 02:15:02
(UTC+02:00)

ISS - Pass Details

Date: 30 May 2018
Orbit: 402 x 408 km, 51.6° (Epoch: 20 September)

Event Time Altitude Azimuth Distance (km) Brightness Sun altitude
Rises 00:57:16 0° 275° (W) 2,322 0.1 -14.1°
Reaches altitude 10° 01:00:06 10° 248° (WSW) 1,458 -1.2 -14.2°
Enters shadow 01:00:43 12° 238° (WSW) 1,344 -1.5 -14.2°
